DELTA 1 DEB, 2700

Orbit data source: Space-Track

DELTA 1 DEB, 2700 is space debris in LEO originally from a launch on Sat, 06 Nov 1965 UTC launched from the Air Force Eastern Test Range (AFETR). Debris objects in space refer to the collection of defunct objects orbiting the Earth. Examples of debris include non-operational satellites, rocket bodies, and fragments generated from explosions, collisions, or faulty payload assembly.

Loading next visibility...
Identifier
2700, 1965-089C
Orbit
LEO
Last TLE update
4 days ago
Origin
Manufacturer
Unknown
Mission
Spacecraft
Bus & Motor
Unknown
Mass
Unknown
Launch date (UTC)
1965-11-06 (60 years ago)
Launch vehicle
Unknown
Launch site
Air Force Eastern Test Range (AFETR)
Object type
Payload
Rocket body
Debris
Shape & HBR
Unknown
Radar Cross Section
Small (<0.1 m²)

Expand to show TLE details & history

TLE from 4 days ago
0 DELTA 1 DEB
1 02700U 65089C   25184.26839412  .00000221  00000-0  15109-2 0  9995
2 02700  59.5968  13.0534 0715435 217.1314 322.6797 12.08968141669268
Epoch: 2025-07-03T06:26Z
TLE epoch observation values (Epoch: 2025-07-03T06:26:29.251Z)
Latitude
4.71388°
Longitude
172.13483°
Altitude
1,202.022 km
Speed
7.45 km/s
True Right ascension
12h 41m 10s
True Declination
4° 41' 15"
Sunlit
Object was in daylight at epoch
Visualization orbit readout
Latitude
-46.66544°
Longitude
-51.71766°
Altitude
1,550.808 km
Speed
7.139 km/s
Apparent Right ascension
22h 04m 11s
Apparent Declination
-43° 35' 24"
Sunlit
Object is in full shadow
Visualization observer readout
Local Sidereal Time
10:24:41
Azimuth
135.542° SSE
Elevation
-84.7°
Doppler factor
1
Orbital elements
Apogee altitude
2,213.989 km
Perigee altitude
1,066.652 km
Semi-major axis
8,018.457 km
Eccentricity
0.07154
Inclination
59.5968°
RAAN
13.0534°
Arg. of periapsis
217.1314°
True anomaly
Unknown
Mean anomaly
322.6797°
Eccentric anomaly
Unknown
Mean motion
3.02278 °/min
Orbital period
119.1 mins
BSTAR
0.0015109
Loading maneuver chart data...
Loading SW <> Apogee altitude chart data...
Loading historical data...
Loading historical data...
Loading historical data...
Loading historical data...
Loading historical data...
Loading historical data...
Loading historical data...

DELTA 1 DEB Visibility forecast

Observer location: undefined°, undefined°

Span
Click to sort rows by Start time (UTC) header in descending order
Start Az.
Max El. time (UTC)
Max El. Az.
Max El.
End time (UTC)
End Az.
15 mins2025-07-06 23:26:33.667Z308.232° NW2025-07-06 23:34:33.667Z249.7° W32.831°2025-07-06 23:41:33.667Z182.339° SSW
22 mins2025-07-07 12:42:33.667Z183.406° SSW2025-07-07 12:53:33.667Z112.042° ESE37.205°2025-07-07 13:04:33.667Z48.281° ENE
23 mins2025-07-07 14:46:33.667Z237.897° WSW2025-07-07 14:57:33.667Z313.705° NW42.043°2025-07-07 15:09:33.667Z37.817° NE
19 mins2025-07-07 16:55:33.667Z287.844° WNW2025-07-07 17:04:33.667Z339.656° N27.997°2025-07-07 17:14:33.667Z41.99° NE
17 mins2025-07-07 19:04:33.667Z318.77° NNW2025-07-07 19:13:33.667Z13.3° NNE26.408°2025-07-07 19:21:33.667Z69.014° E
18 mins2025-07-07 21:10:33.667Z323.619° NNW2025-07-07 21:20:33.667Z45.561° ENE40.936°2025-07-07 21:28:33.667Z120.075° SE
|